Вернуться в каталог

FENGYUN 1C DEB

АктивенSSO
NORAD 30371·DEBRIS·🇨🇳 China

Запущен May 10, 1999 с Taiyuan Satellite Launch Center

Loading…

Ближайшие Пролёты (ближайшие 24 часа)

TLE

СвежийSource: Space-Track

Эпоха: Sep 14, 2026, 02:26 UTC

1 30371U 99025ACJ 26257.10207677  .00001436  00000-0  55810-3 0  9997
2 30371  98.5522 301.0054 0006849 228.1022 159.1420 14.31380140 18392

Отслеживайте FENGYUN 1C DEB в реальном времени с AllMySat

Download on the App Store